Austin Bergstrom, TX

12:57 AM CST on February 23, 2018 (GMT -0600)
Austin Bergstrom International

Weather History for KAUS - August, 2013

Change the Weather History Date:

Saturday, August 10, 2013

  Actual Average Record
Temperature  
Mean Temperature 88 °F 84 °F  
Max Temperature 104 °F 97 °F 107 °F (1953)
Min Temperature 72 °F 72 °F 63 °F (1989)
Degree Days  
Heating Degree Days 0 0  
Month to date heating degree days 0 0  
Since 1 June heating degree days 0 0  
Since 1 July heating degree days 0 0  
Cooling Degree Days 23 19  
Month to date cooling degree days 239 190  
Year to date cooling degree days 1927 1750  
Since 1 June cooling degree days 1413 1243  
Growing Degree Days 40 (Base 50)    
Moisture  
Dew Point 69 °F    
Average Humidity 57    
Maximum Humidity 84    
Minimum Humidity 29    
Precipitation  
Precipitation 0.02 in 0.05 in 0.80 in (1965)
Month to date precipitation 0.02 0.56  
Year to date precipitation 17.59 21.24  
Snow  
Snow 0.00 in - - ()
Month to date snowfall 0.0  
Since 1 June snowfall 0.0  
Since 1 July snowfall 0.0  
Snow Depth 0.00 in    
Sea Level Pressure  
Sea Level Pressure 29.96 in    
Wind  
Wind Speed 6 mph (SSE)    
Max Wind Speed 33 mph    
Max Gust Speed 43 mph    
Visibility 10 miles    
Events Rain    
T = Trace of Precipitation, MM = Missing Value Source: NWS Daily Summary

Daily Weather History Graph

Daily Weather History Graph

Search for Another Location

Airport or City:

Trip Planner

Search our weather history database for the weather conditions in past years. The results will help you decide how hot, cold, wet, or windy it might be!

Date:

Astronomy

Aug. 10, 2013 Rise Set
Actual Time 6:55 AM CDT 8:16 PM CDT
Civil Twilight 6:29 AM CDT 8:41 PM CDT
Nautical Twilight 5:59 AM CDT 9:12 PM CDT
Astronomical Twilight 5:27 AM CDT 9:43 PM CDT
Moon 10:21 AM CDT (8/10) 10:21 PM CDT (8/10)
Length of Visible Light 14h 12m
Length of Day
13h 21m
Waxing Crescent, 14% of the Moon is Illuminated
Aug 10
Waxing Crescent
Aug 14
First Quarter
Aug 20
Full
Aug 28
Last Quarter
Sep 5
New

Hourly Weather History & Observations

Time (CDT) Temp. Heat Index Dew Point Humidity Pressure Visibility Wind Dir Wind Speed Gust Speed Precip Events Conditions
12:53 AM 84.9 °F 89.4 °F 70.0 °F 61% 29.95 in 10.0 mi South 6.9 mph - N/A   Clear
1:53 AM 82.9 °F 86.5 °F 69.1 °F 63% 29.95 in 10.0 mi South 8.1 mph - N/A   Clear
2:53 AM 80.1 °F 82.7 °F 68.0 °F 67% 29.96 in 10.0 mi South 3.5 mph - N/A   Clear
3:53 AM 78.1 °F - 69.1 °F 74% 29.96 in 10.0 mi Calm Calm - N/A   Clear
4:53 AM 75.9 °F - 69.1 °F 79% 29.96 in 10.0 mi Calm Calm - N/A   Clear
5:53 AM 73.9 °F - 68.0 °F 82% 29.95 in 10.0 mi Calm Calm - N/A   Clear
6:53 AM 73.0 °F - 68.0 °F 84% 29.96 in 10.0 mi South 3.5 mph - N/A   Partly Cloudy
7:53 AM 79.0 °F - 70.0 °F 74% 29.97 in 10.0 mi Calm Calm - N/A   Partly Cloudy
8:53 AM 84.9 °F 90.1 °F 71.1 °F 63% 29.99 in 10.0 mi Calm Calm - N/A   Partly Cloudy
9:53 AM 90.0 °F 93.6 °F 68.0 °F 48% 29.99 in 10.0 mi West 3.5 mph - N/A   Partly Cloudy
10:53 AM 93.0 °F 97.4 °F 68.0 °F 44% 30.01 in 10.0 mi SE 6.9 mph - N/A   Partly Cloudy
11:53 AM 95.0 °F 99.5 °F 68.0 °F 41% 30.01 in 10.0 mi North 4.6 mph - N/A   Scattered Clouds
12:53 PM 98.1 °F 103.0 °F 68.0 °F 37% 29.99 in 10.0 mi NE 10.4 mph 17.3 mph N/A   Scattered Clouds
1:53 PM 100.0 °F 104.9 °F 66.9 °F 34% 29.96 in 10.0 mi North 10.4 mph 16.1 mph N/A   Scattered Clouds
2:53 PM 102.0 °F 105.9 °F 64.9 °F 30% 29.94 in 10.0 mi NE 11.5 mph 19.6 mph N/A   Scattered Clouds
3:53 PM 102.0 °F 105.9 °F 64.9 °F 30% 29.91 in 10.0 mi Variable 5.8 mph - N/A   Scattered Clouds
4:53 PM 102.9 °F 106.1 °F 64.0 °F 28% 29.88 in 10.0 mi North 11.5 mph 20.7 mph N/A   Scattered Clouds
5:53 PM 93.0 °F 97.9 °F 69.1 °F 45% 29.92 in 10.0 mi SSE 31.1 mph 42.6 mph N/A   Scattered Clouds
6:06 PM 87.8 °F 92.6 °F 69.8 °F 55% 29.96 in 10.0 mi South 23.0 mph 31.1 mph N/A   Scattered Clouds
6:12 PM 87.8 °F 92.6 °F 69.8 °F 55% 29.97 in 10.0 mi South 18.4 mph 31.1 mph N/A   Mostly Cloudy
6:19 PM 87.8 °F 92.6 °F 69.8 °F 55% 29.97 in 10.0 mi South 11.5 mph 25.3 mph 0.00 in Rain Light Rain
6:37 PM 84.2 °F 89.6 °F 71.6 °F 66% 29.96 in 10.0 mi South 16.1 mph - 0.02 in   Mostly Cloudy
6:53 PM 86.0 °F 90.7 °F 70.0 °F 59% 29.94 in 10.0 mi South 10.4 mph - 0.02 in   Scattered Clouds
7:53 PM 86.0 °F 90.1 °F 69.1 °F 57% 29.94 in 10.0 mi SSW 8.1 mph - N/A   Scattered Clouds
8:24 PM 84.2 °F 88.4 °F 69.8 °F 62% 29.98 in 10.0 mi SSE 4.6 mph - N/A   Scattered Clouds
8:53 PM 82.9 °F 87.0 °F 70.0 °F 65% 29.97 in 10.0 mi Calm Calm - N/A   Scattered Clouds
9:53 PM 81.0 °F 85.2 °F 72.0 °F 74% 29.99 in 10.0 mi Calm Calm - N/A   Scattered Clouds
10:53 PM 81.0 °F 85.2 °F 72.0 °F 74% 29.99 in 10.0 mi Calm Calm - N/A   Scattered Clouds
11:53 PM 80.1 °F 83.8 °F 72.0 °F 76% 30.00 in 10.0 mi SSE 4.6 mph - N/A   Scattered Clouds